Preview of NWS' New Version of Forecast
This preview is not operational and should not be used for support decisions.

Regional Weather Roundup (RWR)

Issued by National Weather Service (NWS)

                            
000
ASUS44 KJAN 180210
RWRMS 

MISSISSIPPI HOURLY WEATHER ROUNDUP
NATIONAL WEATHER SERVICE JACKSON MS
900 PM CDT FRI MAY 17 2019

NOTE: "FAIR: INDICATES FEW OR NO CLOUDS BELOW 12,000 FEET WITH NO
SIGNIFICANT WEATHER AND/OR OBSTRUCTIONS TO VISIBILITY.

MSZ001>002-007>008-010>013-018>021-025>028-034>036-180300-
NORTHWEST MISSISSIPPI
  
CITY           SKY/WX    TMP DP  RH WIND       PRES   REMARKS
BATESVILLE     FAIR      72  68  88 CALM      29.91S                  
CLARKSDALE     CLEAR     79  63  57 S6        29.90S                  
CLEVELAND      FAIR      77  61  56 SE6       29.90R                  
GREENWOOD      FAIR      72  66  81 CALM      29.91S                  
GREENVILLE     FAIR      80  60  50 SE8       29.89S                  
OLIVE BRANCH     N/A     75  68  78 S6        29.91S                  
OXFORD         FAIR      72  66  83 CALM      29.94S                  
TUNICA           N/A     75  63  64 SE5       29.90S                  
WINONA         FAIR      72  66  81 CALM      29.93S                  
$$

MSZ003>006-009-014>017-022>024-029>033-037>039-180300-
NORTHEAST MISSISSIPPI
  
CITY           SKY/WX    TMP DP  RH WIND       PRES   REMARKS
ABERDEEN       FAIR      73  73 100 CALM      29.95S                  
COLUMBUS AFB   FAIR      75  68  79 CALM      29.94                   
CORINTH        FAIR      73  68  83 S3        29.93S                  
GOLDN TRIANGLE FAIR      75  67  76 S6        29.95S                  
STARKVILLE     FAIR      72  66  83 CALM      29.96R                  
TUPELO         FAIR      77  66  68 CALM      29.93S                  
$$

MSZ040-058-180300-
CENTRAL MISSISSIPPI
  
CITY           SKY/WX    TMP DP  RH WIND       PRES   REMARKS
JACKSON INTL   FAIR      74  62  66 S6        29.94R                  
JACKSON HAWKNS FAIR      78  62  57 S8        29.94R                  
MADISON        FAIR      72  63  73 CALM      29.94R                  
MERIDIAN KEY   FAIR      74  68  81 CALM      29.96R                  
MERIDIAN NAS   FAIR      75  67  76 SW3       29.96S                  
RAYMOND        FAIR      75  66  73 S6        29.93R                  
VICKSBURG VKS  CLEAR     77  61  57 SE6       29.92R                  
$$

MSZ059>079-180300-
SOUTH MISSISSIPPI
  
CITY           SKY/WX    TMP DP  RH WIND       PRES   REMARKS
BROOKHAVEN     FAIR      73  63  68 SE5       29.97R                  
HATTIESBURG    FAIR      75  61  61 S3        29.97R                  
LAUREL         CLEAR     77  62  58 S5        29.96S                  
MCCOMB         FAIR      72  65  78 SE7       29.96R                  
NATCHEZ        FAIR      75  63  66 SE8       29.93R                  
PINE BELT      FAIR     N/A N/A N/A S3        29.98R                  
$$

MSZ080>082-180300-
COASTAL MISSISSIPPI
  
CITY           SKY/WX    TMP DP  RH WIND       PRES   REMARKS
BAY ST LOUIS   PTCLDY    75  70  83 SE6       29.96S                  
BILOXI         NOT AVBL                                               
PASCAGOULA     FAIR      73  68  84 CALM      29.98R                  
GULFPORT       FAIR      78  69  73 SE9       29.96S                  
$$

LAZ007>009-015>016-023>026-180300-
NORTHEAST LOUISIANA
  
CITY           SKY/WX    TMP DP  RH WIND       PRES   REMARKS
BASTROP        FAIR      69  63  81 CALM      29.90R                  
TALLULAH/VBURG FAIR      76  65  68 SE6       29.91S                  
VIDALIA        FAIR      77  65  67 SE7       29.90S                  
$$